W0CHP-13 Weather Reports


Display with metric or nautical units.
time (UTC)temp
F
wind
direction
speed
MPH
gust
MPH
rain 1hr
in
rain 24hr
in
rain mn
in
humidity
%
barometer
mb
20260503020317 60 233 1.0 3.0 0.00 0.00 0.00 34 1009.9
20260503015316 60 212 0.0 1.0 0.00 0.00 0.00 33 1010.1
20260503014318 60 243 0.0 1.0 0.00 0.00 0.00 33 1009.9
20260503013316 60 295 0.0 0.0 0.00 0.00 0.00 32 1010.1
20260503012318 61 291 0.0 0.0 0.00 0.00 0.00 32 1010.1
20260503011316 61 288 0.0 1.0 0.00 0.00 0.00 31 1009.9
20260503010318 61 199 1.0 3.0 0.00 0.00 0.00 31 1009.9
20260503005316 62 215 0.0 1.0 0.00 0.00 0.00 30 1010.1
20260503004318 62 193 0.0 1.0 0.00 0.00 0.00 31 1010.3
20260503003316 62 209 1.0 4.0 0.00 0.00 0.00 31 1010.3
20260503002319 62 286 0.0 0.0 0.00 0.00 0.00 30 1010.3
20260503001316 63 234 1.0 1.0 0.00 0.00 0.00 30 1010.4
20260503000315 63 202 0.0 2.0 0.00 0.00 0.00 29 1010.6
20260502235316 63 317 0.0 1.0 0.00 0.00 0.00 29 1010.6
20260502234315 64 247 1.0 2.0 0.00 0.00 0.00 30 1010.8
20260502233317 64 232 0.0 2.0 0.00 0.00 0.00 28 1010.8
20260502232315 64 139 0.0 1.0 0.00 0.00 0.00 27 1010.8
20260502231317 64 259 3.0 7.0 0.00 0.00 0.00 27 1011.0
20260502230315 64 204 2.0 4.0 0.00 0.00 0.00 27 1011.1
20260502225317 64 267 2.0 4.0 0.00 0.00 0.00 25 1011.1
20260502224315 65 254 2.0 4.0 0.00 0.00 0.00 27 1011.3
20260502223317 65 241 2.0 4.0 0.00 0.00 0.00 26 1011.3
20260502222315 65 147 2.0 4.0 0.00 0.00 0.00 26 1011.5
20260502221317 65 339 2.0 4.0 0.00 0.00 0.00 26 1011.5
20260502220315 64 315 0.0 1.0 0.00 0.00 0.00 27 1011.5
20260502215317 64 126 0.0 1.0 0.00 0.00 0.00 26 1011.6
20260502214315 65 304 3.0 7.0 0.00 0.00 0.00 26 1012.0
20260502213318 65 218 3.0 8.0 0.00 0.00 0.00 27 1012.0
20260502212316 65 330 2.0 6.0 0.00 0.00 0.00 24 1012.3
20260502211318 65 292 2.0 4.0 0.00 0.00 0.00 25 1012.3
20260502210316 65 200 4.0 7.0 0.00 0.00 0.00 26 1012.5
20260502205318 66 288 2.0 3.0 0.00 0.00 0.00 24 1012.7
20260502204316 67 338 1.0 3.0 0.00 0.00 0.00 25 1012.9
20260502203318 66 236 2.0 6.0 0.00 0.00 0.00 24 1013.0
20260502202316 66 320 2.0 7.0 0.00 0.00 0.00 23 1013.0
20260502201318 65 260 1.0 4.0 0.00 0.00 0.00 25 1013.2
20260502200316 66 276 3.0 7.0 0.00 0.00 0.00 26 1013.4
20260502195318 66 232 1.0 4.0 0.00 0.00 0.00 26 1013.4
20260502194316 66 247 2.0 3.0 0.00 0.00 0.00 27 1013.9
20260502193318 65 304 3.0 6.0 0.00 0.00 0.00 26 1013.9
20260502192316 66 261 2.0 6.0 0.00 0.00 0.00 25 1014.1
20260502191314 67 244 4.0 8.0 0.00 0.00 0.00 25 1014.4
20260502190317 66 205 3.0 7.0 0.00 0.00 0.00 27 1014.4
20260502185315 66 330 4.0 8.0 0.00 0.00 0.00 26 1014.4
20260502184317 65 328 3.0 7.0 0.00 0.00 0.00 26 1014.8
20260502183315 66 302 2.0 3.0 0.00 0.00 0.00 28 1014.8
20260502182317 65 275 5.0 8.0 0.00 0.00 0.00 26 1015.1
20260502181315 65 19 1.0 4.0 0.00 0.00 0.00 26 1015.1
20260502180317 67 5 3.0 6.0 0.00 0.00 0.00 24 1015.1
20260502170318 67 322 2.0 6.0 0.00 0.00 0.00 23 1016.1
20260502164318 66 324 2.0 4.0 0.00 0.00 0.00 24 1016.1
20260502163316 66 359 0.0 4.0 0.00 0.00 0.00 27 1016.0
20260502162318 66 291 2.0 4.0 0.00 0.00 0.00 26 1016.1
20260502161316 65 299 4.0 8.0 0.00 0.00 0.00 23 1016.5
20260502160318 67 193 2.0 3.0 0.00 0.00 0.00 27 1016.3
20260502152318 65 318 2.0 6.0 0.00 0.00 0.00 27 1016.8
20260502151317 65 271 1.0 4.0 0.00 0.00 0.00 28 1016.8
20260502150315 64 291 1.0 2.0 0.00 0.00 0.00 32 1017.0
20260502130716 47 319 0.0 0.0 0.00 0.00 0.00 48 1017.7
20260502123718 41 286 0.0 0.0 0.00 0.00 0.00 65 1017.5
20260502122716 39 261 0.0 0.0 0.00 0.00 0.00 67 1017.9
20260502121714 38 286 0.0 0.0 0.00 0.00 0.00 64 1017.9
20260502120717 37 287 0.0 0.0 0.00 0.00 0.00 63 1017.5
20260502115715 36 291 0.0 0.0 0.00 0.00 0.00 64 1017.5
20260502114717 36 267 0.0 0.0 0.00 0.00 0.00 63 1017.5
20260502113715 36 284 0.0 0.0 0.00 0.00 0.00 63 1017.5
20260502112718 36 257 0.0 0.0 0.00 0.00 0.00 62 1017.5
20260502111716 35 263 0.0 0.0 0.00 0.00 0.00 62 1017.5
20260502110718 35 270 0.0 0.0 0.00 0.00 0.00 61 1017.3
20260502105716 35 263 0.0 0.0 0.00 0.00 0.00 61 1017.3
20260502104715 36 265 0.0 0.0 0.00 0.00 0.00 61 1017.5
20260502103717 36 265 0.0 0.0 0.00 0.00 0.00 61 1017.5
20260502102715 36 265 0.0 0.0 0.00 0.00 0.00 60 1017.5
20260502101717 36 264 0.0 0.0 0.00 0.00 0.00 60 1017.4
20260502100715 36 263 0.0 0.0 0.00 0.00 0.00 60 1017.5
20260502090717 37 264 0.0 0.0 0.00 0.00 0.00 58 1017.3
20260502070716 39 250 0.0 0.0 0.00 0.00 0.00 54 1017.7
20260502065718 39 254 0.0 0.0 0.00 0.00 0.00 54 1017.5
20260502064716 40 253 0.0 0.0 0.00 0.00 0.00 54 1017.5
20260502063715 40 254 0.0 0.0 0.00 0.00 0.00 53 1017.5
20260502062717 40 254 0.0 0.0 0.00 0.00 0.00 52 1017.7
20260502061715 40 254 0.0 0.0 0.00 0.00 0.00 52 1017.9
20260502060717 41 261 0.0 0.0 0.00 0.00 0.00 51 1017.5
20260502055716 41 261 0.0 0.0 0.00 0.00 0.00 51 1017.5
20260502054718 41 261 0.0 0.0 0.00 0.00 0.00 50 1017.5
20260502053716 41 261 0.0 0.0 0.00 0.00 0.00 49 1017.5
20260502052718 41 262 0.0 0.0 0.00 0.00 0.00 48 1017.3
20260502051715 42 262 0.0 0.0 0.00 0.00 0.00 48 1017.5
20260502050718 42 261 0.0 0.0 0.00 0.00 0.00 47 1017.4
20260502045717 42 263 0.0 0.0 0.00 0.00 0.00 46 1017.5
20260502044718 43 263 0.0 0.0 0.00 0.00 0.00 46 1017.4
20260502043716 43 263 0.0 0.0 0.00 0.00 0.00 45 1017.5
20260502042714 43 263 0.0 0.0 0.00 0.00 0.00 45 1017.5
20260502041717 44 263 0.0 0.0 0.00 0.00 0.00 44 1017.5
20260502040715 44 267 0.0 0.0 0.00 0.00 0.00 44 1017.5
20260502035717 45 267 0.0 0.0 0.00 0.00 0.00 43 1017.2
20260502034716 45 294 0.0 0.0 0.00 0.00 0.00 42 1017.4
20260502033718 45 294 0.0 0.0 0.00 0.00 0.00 42 1017.2
20260502032716 46 287 0.0 0.0 0.00 0.00 0.00 41 1017.2
20260502031718 46 300 0.0 0.0 0.00 0.00 0.00 41 1017.2
20260502030716 47 305 0.0 0.0 0.00 0.00 0.00 42 1017.2
20260502025715 47 316 0.0 0.0 0.00 0.00 0.00 45 1017.2
20260502024717 47 305 0.0 0.0 0.00 0.00 0.00 38 1017.2
20260502023715 48 323 0.0 0.0 0.00 0.00 0.00 38 1017.2
20260502022717 48 48 0.0 0.0 0.00 0.00 0.00 36 1017.0
20260502021715 49 48 0.0 0.0 0.00 0.00 0.00 35 1017.0